STARLINK-32569, 61867

Orbit data source: Space-Track

STARLINK-32569, 61867 is a payload satellite owned by SpaceX/Seattle (US) in LEO that was launched on Thu, 07 Nov 2024 UTC via an FALCON 9 launch vehicle from the Air Force Eastern Test Range (AFETR). Payload-class satellites include a variety of spacecraft equipped with specific instruments for various scientific and technological missions. These include communications satellites like Starlink; space stations such as the ISS; scientific satellites like the Hubble; Earth observation satellites from companies like Planet Labs, Umbra, and HawkEye 360; GPS; miniature CubeSats for education and research; and military/defense satellites.

Loading next visibility...
Identifier
61867, 2024-202Y
Orbit
LEO
Last TLE update
17 hours ago
Origin
Manufacturer
SpaceX/Seattle
Mission
Operational Commercial Communications
Bus & Motor
STARLINK V2M, Unknown motor
Mass
730 kg wet, ~700 kg dry
Launch date (UTC)
2024-11-07 (8 months ago)
Launch vehicle
FALCON 9
Launch site
Air Force Eastern Test Range (AFETR)
Object type
Payload
Rocket body
Debris
Shape & HBR
Box + 2 Pan, 29 m
Radar Cross Section
33.884 m², Large (>1 m²)

Expand to show TLE details & history

TLE from 17 hours ago
0 STARLINK-32569
1 61867U 24202Y   25191.30656041 -.00000454  00000-0 -69752-5 0  9990
2 61867  43.0029 167.2382 0001363 283.0448  77.0252 15.27578130 38260
Epoch: 2025-07-10T07:21Z
TLE epoch observation values (Epoch: 2025-07-10T07:21:26.819Z)
Latitude
0.00002°
Longitude
128.40175°
Altitude
482.621 km
Speed
7.626 km/s
True Right ascension
11h 08m 57s
True Declination
0° 00' 00"
Sunlit
Object was in daylight at epoch
Visualization orbit readout
Latitude
16.39743°
Longitude
142.60084°
Altitude
482.28 km
Speed
7.627 km/s
Apparent Right ascension
09h 57m 04s
Apparent Declination
-44° 56' 36"
Sunlit
Object is in daylight
Visualization observer readout
Local Sidereal Time
12:59:48
Azimuth
210.517° SW
Elevation
-4.244°
Doppler factor
1
Orbital elements
Apogee altitude
485.935 km
Perigee altitude
484.064 km
Semi-major axis
6,863.136 km
Eccentricity
0.00014
Inclination
43.0029°
RAAN
167.2382°
Arg. of periapsis
283.0448°
True anomaly
Unknown
Mean anomaly
77.0252°
Eccentric anomaly
Unknown
Mean motion
3.81733 °/min
Orbital period
94.31 mins
BSTAR
-0.0000069752
Loading maneuver chart data...
Loading SW <> Apogee altitude chart data...
Loading historical data...
Loading historical data...
Loading historical data...
Loading historical data...
Loading historical data...
Loading historical data...
Loading historical data...

STARLINK-32569 Visibility forecast

Observer location: undefined°, undefined°

Span
Click to sort rows by Start time (UTC) header in descending order
Start Az.
Max El. time (UTC)
Max El. Az.
Max El.
End time (UTC)
End Az.
4 mins2025-07-11 00:48:31.299Z172.975° S2025-07-11 00:50:31.299Z135.534° SSE15.857°2025-07-11 00:52:31.299Z102.896° ESE
5 mins2025-07-11 02:26:31.299Z238.787° WSW2025-07-11 02:28:31.299Z182.859° SSW43.411°2025-07-11 02:31:31.299Z75.339° E
5 mins2025-07-11 04:05:31.299Z285.229° WNW2025-07-11 04:07:31.299Z339.938° N38.211°2025-07-11 04:10:31.299Z69.714° E
6 mins2025-07-11 05:44:31.299Z292.739° NW2025-07-11 05:46:31.299Z327.284° NNW41.267°2025-07-11 05:50:31.299Z97.624° ESE
5 mins2025-07-11 07:23:31.299Z266.87° W2025-07-11 07:25:31.299Z219.86° SW29.703°2025-07-11 07:28:31.299Z148.2° SSE
|